Terminal Aerodrome Forecast
Issued by NWS Boston, MA

Home | Current Version | Previous Version | Text Only | Print | Product List | Glossary On
Versions: 1 2 3 4 5 6 7 8 9 10 11 12 13 14 15 16 17 18 19 20 21 22 23 24 25 26 27 28 29 30 31 32 33 34 35 36 37 38 39 40 41 42 43 44 45 46 47 48 49 50
000
FTUS41 KBOX 221246 AAW
TAFPVD
TAF AMD
KPVD 221246Z 2213/2312 00000KT P6SM SKC
     FM221700 04003KT P6SM SCT070
     FM230000 07004KT P6SM BKN025
     FM230500 05003KT P6SM OVC010
     FM231100 06003KT P6SM BKN025=

USA.gov is the U.S. government's official web portal to all federal, state and local government web resources and services.